Location: North Evanston
(42.0634°N, 87.6976°W)
Time: 05:47:50
(UTC+00:00)

Transit 2A - All Passes

Search period start: 10 May 2026 00:00
Search period end: 20 May 2026 00:00
Orbit: 593 x 950 km, 66.7° (Epoch: 9 May)

Date Brightness Start Highest point End Pass type
(mag) Time Alt. Az. Time Alt. Az. Time Alt. Az.
10 May - 07:01:29 10° NNW 07:06:13 39° NE 07:10:31 10° ESE visible
10 May - 08:45:04 10° NW 08:48:55 24° WSW 08:52:33 10° SSW visible
10 May - 21:38:59 10° S 21:44:32 34° ESE 21:49:49 10° NE daylight
10 May - 23:21:38 10° SW 23:27:31 44° NW 23:33:04 10° NNE daylight
11 May - 01:10:33 10° NW 01:12:01 11° NNW 01:13:27 10° NNW daylight
11 May - 06:25:19 10° N 06:29:35 27° NE 06:33:31 10° ESE visible
11 May - 08:08:11 10° NW 08:12:43 39° WSW 08:16:52 10° S visible
11 May - 21:03:32 10° SSE 21:08:17 23° ESE 21:12:52 10° ENE daylight
11 May - 22:44:50 10° SW 22:50:59 62° WNW 22:56:46 10° NNE daylight
12 May - 00:31:56 10° WNW 00:35:07 14° NW 00:38:12 10° N daylight
12 May - 05:49:16 10° N 05:52:52 19° NE 05:56:14 10° E visible
12 May - 07:31:33 10° NW 07:36:25 63° WSW 07:40:51 10° SSE visible
12 May - 20:28:41 10° SE 20:32:06 15° ESE 20:35:26 10° ENE daylight
12 May - 22:08:16 10° SSW 22:14:31 88° WNW 22:20:23 10° NNE daylight
12 May - 23:54:04 10° W 23:58:18 19° NW 00:02:21 10° N daylight
13 May - 05:13:27 10° N 05:16:04 14° NE 05:18:34 10° ENE visible
13 May - 06:55:04 10° NNW 07:00:02 81° ENE 07:04:33 10° SSE visible
13 May - 08:41:29 10° W 08:42:06 10° WSW 08:42:43 10° WSW visible
13 May - 21:31:57 10° SSW 21:38:07 65° ESE 21:43:55 10° NE daylight
13 May - 23:16:34 10° WSW 23:21:35 26° NW 23:26:20 10° N daylight
14 May - 04:38:38 10° NNE 04:39:11 10° NNE 04:39:43 10° NE visible
14 May - 06:18:43 10° NNW 06:23:34 51° NE 06:27:58 10° SE visible
14 May - 08:02:54 10° WNW 08:06:00 17° WSW 08:08:57 10° SSW visible
14 May - 20:55:55 10° S 21:01:46 44° ESE 21:07:19 10° NE daylight
14 May - 22:39:21 10° WSW 22:44:56 35° NW 22:50:11 10° NNE daylight
15 May - 05:42:27 10° NNW 05:46:59 34° NE 05:51:09 10° ESE visible
15 May - 07:25:46 10° NW 07:29:50 28° WSW 07:33:39 10° SSW visible
15 May - 20:20:11 10° SSE 20:25:29 30° ESE 20:30:32 10° NE daylight
15 May - 22:02:24 10° SW 22:08:22 49° NW 22:13:57 10° NNE daylight
15 May - 23:50:40 10° NW 23:52:44 12° NW 23:54:44 10° NNW daylight
16 May - 05:06:20 10° N 05:10:20 24° NE 05:14:04 10° E visible
16 May - 06:48:59 10° NW 06:53:36 45° WSW 06:57:50 10° S visible
16 May - 19:44:53 10° SSE 19:49:14 20° ESE 19:53:28 10° ENE daylight
16 May - 21:25:41 10° SW 21:31:51 70° WNW 21:37:38 10° NNE daylight
16 May - 23:12:22 10° WNW 23:15:51 16° NW 23:19:13 10° N daylight
17 May - 04:30:21 10° N 04:33:36 17° NE 04:36:39 10° E visible
17 May - 06:12:24 10° NNW 06:17:17 74° WSW 06:21:43 10° SSE visible
17 May - 19:10:23 10° SE 19:13:05 13° ESE 19:15:43 10° ENE daylight
17 May - 20:49:12 10° SSW 20:55:25 83° ESE 21:01:14 10° NNE daylight
17 May - 22:34:37 10° W 22:39:04 21° NW 22:43:19 10° N daylight
18 May - 03:54:43 10° N 03:56:45 12° NE 03:58:44 10° ENE visible
18 May - 05:35:58 10° NNW 05:40:51 69° ENE 05:45:18 10° SE visible
18 May - 07:21:13 10° W 07:23:03 12° WSW 07:24:50 10° SW visible
18 May - 20:12:58 10° SSW 20:19:01 57° ESE 20:24:43 10° NE daylight
18 May - 21:57:13 10° WSW 22:02:23 28° NW 22:07:16 10° N daylight
19 May - 04:59:38 10° NNW 05:04:21 44° NE 05:08:39 10° SE visible
19 May - 06:43:30 10° WNW 06:46:55 20° WSW 06:50:11 10° SSW visible
19 May - 19:37:01 10° S 19:42:41 39° ESE 19:48:03 10° NE daylight
19 May - 21:20:05 10° WSW 21:25:46 39° NW 21:31:05 10° NNE daylight
